Location: Observatoire de Paris
(48.8363°N, 2.3365°E)
Time: 17:01:01
(UTC+01:00)

Vanguard 3 - Pass Details

Date: 10 August 2021
Orbit: 510 x 3260 km, 33.4° (Epoch: 23 September)

Event Time Altitude Azimuth Distance (km) Brightness Sun altitude
Rises 21:02:10 0° 268° (W) 5,707 12.5 -7.7°
Reaches altitude 10° 21:06:04 10° 259° (W) 5,055 11.9 -8.2°
Maximum altitude 21:18:58 32° 205° (SSW) 4,319 10.7 -9.9°
Drops below altitude 10° 21:34:49 10° 152° (SSE) 6,181 11.0 -11.9°
Enters shadow 21:35:16 - 151° (SSE) 6,254 11.1 -12.0°
